"2016-07-10 00:00:00",1795609,2.616,147.7,3.22,0.337,26.86,112.4077,31.09,32.13,9.15,0,111.7,12.94,31.95,109.7
"2016-07-10 00:00:30",1795610,2.856,150,6.329,0.168,26.87,112.4077,31.09,32.14,9.15,0,111.8,12.94,31.95,112.0
"2016-07-10 00:01:00",1795611,2.261,152.8,4.71,0.171,26.86,112.4105,31.09,32.14,9.15,0,111.8,12.94,31.95,114.8
"2016-07-10 00:01:30",1795612,2.55,178.2,7.131,0.176,26.92,112.4134,31.1,32.15,9.15,0,111.8,12.94,31.96,140.2
"2016-07-10 00:02:00",1795613,2.054,167.2,3.262,0.165,26.89,112.4124,31.1,32.13,9.14,0,111.8,12.94,31.96,129.2
"2016-07-10 00:02:30",1795614,2.369,172.4,5.747,0.269,26.88,112.413,31.1,32.14,9.17,0,111.8,12.94,31.96,134.4
"2016-07-10 00:03:00",1795615,2.432,171.2,8.24,0.155,26.9,112.4133,31.1,32.15,9.22,0,111.8,12.94,31.96,133.2
"2016-07-10 00:03:30",1795616,2.123,165.1,3.053,0.197,26.82,112.4169,31.11,32.15,9.22,0,111.8,12.94,31.97,127.1
"2016-07-10 00:04:00",1795617,3.178,168.8,14.05,0.508,26.85,112.4208,31.12,32.14,9.24,0,111.8,12.94,31.98,130.8
"2016-07-10 00:04:30",1795618,3.469,149.9,3.596,0.342,26.88,112.4193,31.12,32.15,9.33,0,111.8,12.94,31.98,111.9
"2016-07-10 00:05:00",1795619,2.756,156.6,9.98,0.324,26.8,112.4157,31.11,32.16,9.3,0,111.8,12.94,31.97,118.6
"2016-07-10 00:05:30",1795620,3.236,165.6,5.65,0.239,26.86,112.4112,31.1,32.15,9.19,0,111.8,12.94,31.96,127.6
"2016-07-10 00:06:00",1795621,3.263,145.4,5.178,0.356,26.77,112.4115,31.1,32.15,9.12,0,111.8,12.94,31.96,107.4
"2016-07-10 00:06:30",1795622,2.698,148.2,4.742,0.26,26.78,112.416,31.11,32.15,9.12,0,111.8,12.94,31.97,110.2
"2016-07-10 00:07:00",1795623,2.678,164.6,7.915,0.239,26.86,112.4252,31.13,32.14,9.1,0,111.8,12.94,31.99,126.6
"2016-07-10 00:07:30",1795624,4.003,179.8,6.273,0.351,26.84,112.4348,31.16,32.15,9.12,0,111.8,12.94,32.02,141.8
"2016-07-10 00:08:00",1795625,4.324,171.2,4.561,0.34,26.84,112.4364,31.16,32.17,9.07,0,111.8,12.94,32.02,133.2
"2016-07-10 00:08:30",1795626,3.857,161.9,4.356,0.18,26.92,112.4367,31.16,32.16,9.06,0,111.8,12.93,32.02,123.9
"2016-07-10 00:09:00",1795627,2.432,190.4,14.37,0.462,26.89,112.4364,31.16,32.18,9.07,0,111.8,12.93,32.02,152.4
"2016-07-10 00:09:30",1795628,1.976,196.3,3.11,0.105,26.86,112.437,31.16,32.18,9.05,0,111.8,12.93,32.02,158.3
"2016-07-10 00:10:00",1795629,2.141,189,10.85,0.318,26.86,112.4373,31.16,32.18,9.06,0,111.8,12.93,32.02,151.0
"2016-07-10 00:10:30",1795630,2.94,174.8,6.161,0.32,26.82,112.437,31.16,32.18,9.07,0,111.8,12.93,32.02,136.8
"2016-07-10 00:11:00",1795631,3.321,181.4,4.929,0.379,26.82,112.437,31.16,32.2,9.08,0,111.8,12.93,32.02,143.4
"2016-07-10 00:11:30",1795632,2.33,164.6,12.12,0.538,26.86,112.437,31.16,32.19,9.09,0,111.8,12.93,32.02,126.6
"2016-07-10 00:12:00",1795633,2.419,134.4,8.77,0.189,26.72,112.437,31.16,32.2,9.25,0,111.8,12.93,32.02,96.4
"2016-07-10 00:12:30",1795634,2.859,125.9,3.306,0.188,26.73,112.4311,31.15,32.18,9.34,0,111.8,12.93,32.01,87.9
"2016-07-10 00:13:00",1795635,2.514,126.2,2.313,0.151,26.72,112.4123,31.1,32.17,9.33,0,111.8,12.93,31.96,88.2
"2016-07-10 00:13:30",1795636,2.188,145.9,6.935,0.244,26.74,112.4118,31.1,32.14,9.35,0,111.7,12.93,31.96,107.9
"2016-07-10 00:14:00",1795637,2.425,137.1,3.192,0.304,26.69,112.4118,31.1,32.14,9.25,0,111.8,12.93,31.96,99.1
"2016-07-10 00:14:30",1795638,2.415,140.2,5.453,0.215,26.75,112.4134,31.1,32.13,9.11,0,111.8,12.93,31.96,102.2
"2016-07-10 00:15:00",1795639,2.655,143,7.572,0.334,26.78,112.4132,31.1,32.14,9.06,0,111.8,12.94,31.96,105.0
"2016-07-10 00:15:30",1795640,3.203,148.7,3.987,0.422,26.79,112.4146,31.1,32.14,9.09,0,111.8,12.94,31.96,110.7
"2016-07-10 00:16:00",1795641,3.32,148.7,3.196,0.142,26.79,112.423,31.13,32.12,9.13,0,111.8,12.94,31.99,110.7
"2016-07-10 00:16:30",1795642,2.804,141.2,3.515,0.269,26.78,112.4277,31.14,32.16,9.11,0,111.8,12.94,32.00,103.2
"2016-07-10 00:17:00",1795643,3.304,133.5,4.446,0.194,26.8,112.4232,31.13,32.14,9.11,0,111.8,12.94,31.99,95.5
"2016-07-10 00:17:30",1795644,3.602,133,4.111,0.198,26.82,112.4303,31.14,32.16,9.19,0,111.8,12.94,32.01,95.0
"2016-07-10 00:18:00",1795645,3.535,120.4,6.816,0.19,26.91,112.4353,31.16,32.16,9.19,0,111.8,12.94,32.02,82.4
"2016-07-10 00:18:30",1795646,2.806,121.6,5.876,0.385,26.84,112.4358,31.16,32.16,9.19,0,111.8,12.94,32.02,83.6
"2016-07-10 00:19:00",1795647,2.502,131.6,2.619,0.194,26.84,112.437,31.16,32.18,9.19,0,111.8,12.94,32.02,93.6
"2016-07-10 00:19:30",1795648,2.137,139,6.786,0.248,26.86,112.437,31.16,32.18,9.21,0,111.8,12.94,32.02,101.0
"2016-07-10 00:20:00",1795649,1.682,129.4,8.66,0.126,26.83,112.4372,31.16,32.18,9.17,0,111.8,12.94,32.02,91.4
"2016-07-10 00:20:30",1795650,1.816,137.1,11.42,0.167,26.79,112.4386,31.17,32.18,9.12,0,111.8,12.94,32.03,99.1
"2016-07-10 00:21:00",1795651,2.001,141.4,8.68,0.341,26.74,112.4448,31.18,32.19,9.1,0,111.7,12.94,32.04,103.4
"2016-07-10 00:21:30",1795652,3.06,156.4,5.196,0.246,26.8,112.4473,31.19,32.2,9.14,0,111.8,12.94,32.05,118.4
"2016-07-10 00:22:00",1795653,2.684,155.9,5.702,0.267,26.83,112.4569,31.21,32.21,9.11,0,111.7,12.94,32.07,117.9
"2016-07-10 00:22:30",1795654,2.502,149.5,3.907,0.144,26.79,112.463,31.23,32.22,9.12,0,111.8,12.94,32.09,111.5
"2016-07-10 00:23:00",1795655,3.218,139.8,2.169,0.285,26.73,112.4667,31.24,32.24,9.06,0,111.8,12.94,32.10,101.8
"2016-07-10 00:23:30",1795656,3.536,144.4,2.638,0.178,26.84,112.4692,31.25,32.24,9.06,0,111.8,12.94,32.11,106.4
"2016-07-10 00:24:00",1795657,3.686,150.4,4.941,0.224,26.94,112.4706,31.25,32.25,9.05,0,111.8,12.94,32.11,112.4
"2016-07-10 00:24:30",1795658,3.415,151.5,3.051,0.157,26.95,112.4706,31.25,32.27,8.99,0,111.7,12.94,32.11,113.5
"2016-07-10 00:25:00",1795659,3.6,153.2,3.997,0.323,26.96,112.4706,31.25,32.26,9.07,0,111.8,12.94,32.11,115.2
"2016-07-10 00:25:30",1795660,2.729,154.8,9.16,0.533,26.88,112.4706,31.25,32.28,9.13,0,111.8,12.94,32.11,116.8
"2016-07-10 00:26:00",1795661,2.902,163.8,9.8,0.647,26.91,112.4703,31.25,32.28,9.1,0,111.8,12.93,32.11,125.8
"2016-07-10 00:26:30",1795662,3.708,153.2,5.333,0.324,26.95,112.4695,31.25,32.26,9.08,0,111.8,12.93,32.11,115.2
"2016-07-10 00:27:00",1795663,3.449,145.8,4.263,0.237,26.97,112.4706,31.25,32.27,9.16,0,111.7,12.93,32.11,107.8
"2016-07-10 00:27:30",1795664,3.052,152.9,8.35,0.345,27.03,112.4706,31.25,32.26,9.23,0,111.8,12.93,32.11,114.9
"2016-07-10 00:28:00",1795665,3.064,158,5.773,0.288,27.02,112.4706,31.25,32.28,9.25,0,111.8,12.93,32.11,120.0
"2016-07-10 00:28:30",1795666,3.22,152.7,1.818,0.093,27,112.4706,31.25,32.28,9.15,0,111.8,12.93,32.11,114.7
"2016-07-10 00:29:00",1795667,3.245,158.8,5.7,0.198,27,112.4714,31.25,32.29,9.09,0,111.8,12.93,32.11,120.8
"2016-07-10 00:29:30",1795668,3.152,166.1,4.076,0.267,27.01,112.4728,31.25,32.28,9.07,0,111.8,12.93,32.12,128.1
"2016-07-10 00:30:00",1795669,2.847,165.3,4.384,0.284,26.96,112.4728,31.25,32.28,9.01,0,111.8,12.93,32.12,127.3
"2016-07-10 00:30:30",1795670,3.523,162.8,3.404,0.129,26.98,112.4723,31.25,32.29,8.96,0,111.7,12.93,32.11,124.8
"2016-07-10 00:31:00",1795671,3.009,157.9,7.125,0.351,26.97,112.4714,31.25,32.29,8.94,0,111.8,12.93,32.11,119.9
"2016-07-10 00:31:30",1795672,2.899,161,4.612,0.14,26.92,112.4706,31.25,32.3,9.02,0,111.8,12.93,32.11,123.0
"2016-07-10 00:32:00",1795673,2.904,157.6,3.289,0.171,26.93,112.4625,31.23,32.28,9.19,0,111.7,12.93,32.09,119.6
"2016-07-10 00:32:30",1795674,3.068,161.3,2.477,0.137,26.98,112.4437,31.18,32.25,9.16,0,111.8,12.94,32.04,123.3
"2016-07-10 00:33:00",1795675,3.12,159.2,2.792,0.161,26.91,112.4372,31.16,32.23,9.15,0,111.8,12.93,32.02,121.2
"2016-07-10 00:33:30",1795676,3.124,157.5,3.03,0.259,26.96,112.437,31.16,32.21,9.07,0,111.8,12.93,32.02,119.5
"2016-07-10 00:34:00",1795677,3.815,166.4,4.407,0.264,26.96,112.437,31.16,32.2,9.07,0,111.7,12.93,32.02,128.4
"2016-07-10 00:34:30",1795678,4.157,176.6,3.519,0.4,27.01,112.437,31.16,32.18,9.05,0,111.7,12.93,32.02,138.6
"2016-07-10 00:35:00",1795679,4.879,179.7,4.565,0.271,27.03,112.4378,31.16,32.2,9.04,0,111.7,12.93,32.02,141.7
"2016-07-10 00:35:30",1795680,3.997,168,4.698,0.434,27.05,112.4375,31.16,32.21,9.01,0,111.7,12.93,32.02,130.0
"2016-07-10 00:36:00",1795681,3.543,162.3,2.81,0.24,27.05,112.4381,31.17,32.2,9.01,0,111.7,12.93,32.03,124.3
"2016-07-10 00:36:30",1795682,3.511,167.5,1.803,0.211,27.06,112.4375,31.16,32.2,9.03,0,111.7,12.93,32.02,129.5
"2016-07-10 00:37:00",1795683,3.106,166.6,3.468,0.163,27,112.437,31.16,32.21,9.05,0,111.7,12.93,32.02,128.6
"2016-07-10 00:37:30",1795684,3.214,157.8,3.322,0.202,26.9,112.4244,31.13,32.19,9.28,0,111.7,12.93,31.99,119.8
"2016-07-10 00:38:00",1795685,3.594,142.7,6.37,0.356,26.92,112.4104,31.09,32.16,9.26,0,111.7,12.93,31.95,104.7
"2016-07-10 00:38:30",1795686,3.827,136.1,3.188,0.143,26.92,112.4039,31.08,32.15,9.13,0,111.7,12.93,31.94,98.1
"2016-07-10 00:39:00",1795687,3.597,138.7,3.546,0.288,26.97,112.4034,31.08,32.13,9.14,0,111.7,12.93,31.94,100.7
"2016-07-10 00:39:30",1795688,4.273,141.3,3.931,0.143,27.04,112.4034,31.08,32.13,9.06,0,111.7,12.93,31.94,103.3
"2016-07-10 00:40:00",1795689,3.977,145.6,7.728,0.198,27.04,112.4034,31.08,32.11,9.04,0,111.7,12.93,31.94,107.6
"2016-07-10 00:40:30",1795690,4.07,154.8,3.395,0.187,27.05,112.4034,31.08,32.12,9.05,0,111.7,12.93,31.94,116.8
"2016-07-10 00:41:00",1795691,3.831,146.2,7.491,0.129,27.06,112.4034,31.08,32.12,9.05,0,111.7,12.93,31.94,108.2
"2016-07-10 00:41:30",1795692,4.334,138.5,4.84,0.253,27.07,112.4034,31.08,32.1,9.03,0,111.7,12.93,31.94,100.5
"2016-07-10 00:42:00",1795693,3.946,146.5,3.353,0.185,27.15,112.4034,31.08,32.11,9.02,0,111.7,12.93,31.94,108.5
"2016-07-10 00:42:30",1795694,3.771,148,4.356,0.107,27.13,112.4037,31.08,32.11,9.02,0,111.7,12.93,31.94,110.0
"2016-07-10 00:43:00",1795695,3.838,148.6,3.9,0.21,27.15,112.4034,31.08,32.1,8.99,0,111.7,12.93,31.94,110.6
"2016-07-10 00:43:30",1795696,3.775,149.9,3.306,0.108,27.1,112.4044,31.08,32.11,8.98,0,111.7,12.93,31.94,111.9
"2016-07-10 00:44:00",1795697,3.734,155.4,1.648,0.1,27.26,112.403,31.07,32.11,9.02,0,111.7,12.93,31.93,117.4
"2016-07-10 00:44:30",1795698,3.936,152.9,2.128,0.214,27.13,112.4003,31.07,32.1,9.04,0,111.7,12.93,31.93,114.9
"2016-07-10 00:45:00",1795699,3.647,148.3,3.379,0.168,27.12,112.3961,31.06,32.09,9.02,0,111.7,12.93,31.92,110.3
"2016-07-10 00:45:30",1795700,3.394,142.6,2.158,0.107,27.08,112.3856,31.03,32.11,9.01,0,111.7,12.93,31.89,104.6
"2016-07-10 00:46:00",1795701,3.211,143.1,4.16,0.202,27.06,112.3873,31.03,32.11,9.02,0,111.7,12.93,31.89,105.1
"2016-07-10 00:46:30",1795702,3.245,140.7,4.936,0.249,27.06,112.3885,31.04,32.09,9.04,0,111.7,12.93,31.90,102.7
"2016-07-10 00:47:00",1795703,3.862,131.6,5.695,0.323,27.09,112.3901,31.04,32.11,9.09,0,111.7,12.93,31.90,93.6
"2016-07-10 00:47:30",1795704,4.645,134.2,3.244,0.123,27.18,112.3897,31.04,32.08,9.09,0,111.7,12.93,31.90,96.2
"2016-07-10 00:48:00",1795705,4.394,138.8,3.171,0.181,27.21,112.3876,31.04,32.08,9.13,0,111.7,12.93,31.90,100.8
"2016-07-10 00:48:30",1795706,3.874,138.4,3.843,0.279,27.21,112.3883,31.04,32.07,9.14,0,111.7,12.93,31.90,100.4
"2016-07-10 00:49:00",1795707,3.314,145.1,1.756,0.153,27.26,112.3919,31.05,32.08,9.2,0,111.7,12.93,31.91,107.1
"2016-07-10 00:49:30",1795708,3.396,149.7,2.502,0.167,27.21,112.3884,31.04,32.07,9.28,0,111.7,12.94,31.90,111.7
"2016-07-10 00:50:00",1795709,3.413,143.7,4.897,0.428,27.11,112.3806,31.02,32.06,9.29,0,111.7,12.94,31.88,105.7
"2016-07-10 00:50:30",1795710,3.434,143.3,2.894,0.149,27.22,112.3731,31,32.06,9.16,0,111.7,12.94,31.86,105.3
"2016-07-10 00:51:00",1795711,3.568,146.3,5.059,0.351,27.23,112.3708,30.99,32.04,9.17,0,111.7,12.94,31.85,108.3
"2016-07-10 00:51:30",1795712,3.919,150,2.665,0.207,27.22,112.3659,30.98,32.04,9.11,0,111.7,12.94,31.84,112.0
"2016-07-10 00:52:00",1795713,3.869,146.7,2.265,0.158,27.31,112.3645,30.98,32.02,9.07,0,111.7,12.94,31.84,108.7
"2016-07-10 00:52:30",1795714,4.07,140.8,3.846,0.119,27.29,112.3645,30.98,32.02,9.02,0,111.7,12.94,31.84,102.8
"2016-07-10 00:53:00",1795715,4.947,144,2.492,0.188,27.3,112.3645,30.98,32.01,9.05,0,111.7,12.94,31.84,106.0
"2016-07-10 00:53:30",1795716,5.002,146.5,2.013,0.203,27.27,112.3645,30.98,32,9.02,0,111.7,12.94,31.84,108.5
"2016-07-10 00:54:00",1795717,4.369,145.5,3.281,0.154,27.27,112.3642,30.97,31.99,9.05,0,111.7,12.94,31.83,107.5
"2016-07-10 00:54:30",1795718,4.639,139,1.707,0.157,27.3,112.3614,30.97,31.99,9.02,0,111.7,12.94,31.83,101.0
"2016-07-10 00:55:00",1795719,4.575,136.4,2.603,0.159,27.37,112.3513,30.94,31.98,9,0,111.7,12.94,31.80,98.4
"2016-07-10 00:55:30",1795720,5.07,137.2,1.906,0.183,27.32,112.3404,30.91,31.98,8.97,0,111.7,12.94,31.77,99.2
"2016-07-10 00:56:00",1795721,4.843,143.8,3.09,0.149,27.4,112.3379,30.91,31.98,8.98,0,111.7,12.94,31.77,105.8
"2016-07-10 00:56:30",1795722,5.275,141.1,4.607,0.299,27.34,112.3323,30.89,31.95,9.02,0,111.7,12.94,31.75,103.1
"2016-07-10 00:57:00",1795723,5.486,137.9,2.165,0.279,27.44,112.3321,30.89,31.95,9.01,0,111.7,12.94,31.75,99.9
"2016-07-10 00:57:30",1795724,5.855,142.6,1.075,0.103,27.4,112.3347,30.9,31.95,8.98,0,111.7,12.94,31.76,104.6
"2016-07-10 00:58:00",1795725,6.09,145.4,1.866,0.263,27.47,112.3285,30.88,31.94,8.97,0,111.7,12.94,31.74,107.4
"2016-07-10 00:58:30",1795726,6.291,145.6,1.563,0.146,27.47,112.3258,30.88,31.92,9.02,0,111.7,12.94,31.74,107.6
"2016-07-10 00:59:00",1795727,5.859,144.2,2.824,0.251,27.42,112.317,30.85,31.93,9.06,0,111.7,12.94,31.71,106.2
"2016-07-10 00:59:30",1795728,5.468,140.3,3.284,0.156,27.34,112.315,30.85,31.91,9.06,0,111.7,12.94,31.71,102.3
"2016-07-10 01:00:00",1795729,5.115,144.4,1.772,0.154,27.42,112.3142,30.85,31.91,9.11,0,111.7,12.94,31.71,106.4
"2016-07-10 01:00:30",1795730,4.81,141.5,3.299,0.127,27.34,112.3092,30.83,31.89,9.13,0,111.7,12.93,31.69,103.5
"2016-07-10 01:01:00",1795731,5.018,139.3,1.929,0.162,27.41,112.3066,30.83,31.88,9.1,0,111.7,12.93,31.69,101.3
"2016-07-10 01:01:30",1795732,5.7,141.2,2.405,0.187,27.52,112.3066,30.83,31.88,9.1,0,111.7,12.93,31.69,103.2
"2016-07-10 01:02:00",1795733,5.525,144.2,1.906,0.102,27.49,112.3058,30.82,31.87,9.14,0,111.7,12.93,31.68,106.2
"2016-07-10 01:02:30",1795734,5.709,145.1,1.876,0.159,27.52,112.3027,30.82,31.87,9.17,0,111.7,12.93,31.68,107.1
"2016-07-10 01:03:00",1795735,5.938,154.4,3.255,0.221,27.47,112.2904,30.78,31.86,9.17,0,111.7,12.93,31.64,116.4
"2016-07-10 01:03:30",1795736,5.932,154.3,1.944,0.212,27.35,112.2837,30.77,31.84,9.15,0,111.7,12.93,31.63,116.3
"2016-07-10 01:04:00",1795737,6.024,152.1,3.097,0.212,27.41,112.2786,30.75,31.84,9.07,0,111.7,12.93,31.61,114.1
"2016-07-10 01:04:30",1795738,4.99,150.1,2.66,0.375,27.44,112.2742,30.74,31.83,9.07,0,111.7,12.93,31.60,112.1
"2016-07-10 01:05:00",1795739,5.013,155.8,2.156,0.235,27.4,112.273,30.74,31.81,9.03,0,111.7,12.93,31.60,117.8
"2016-07-10 01:05:30",1795740,4.772,161.6,3.149,0.184,27.35,112.273,30.74,31.81,9.16,0,111.7,12.93,31.60,123.6
"2016-07-10 01:06:00",1795741,4.625,160,1.484,0.095,27.3,112.273,30.74,31.79,9.1,0,111.7,12.94,31.60,122.0
"2016-07-10 01:06:30",1795742,5.102,160.5,2.239,0.273,27.4,112.273,30.74,31.78,9,0,111.7,12.94,31.60,122.5
"2016-07-10 01:07:00",1795743,4.84,161.5,2.278,0.19,27.41,112.2711,30.74,31.79,9.01,0,111.7,12.94,31.59,123.5
"2016-07-10 01:07:30",1795744,4.296,155.5,5.594,0.211,27.3,112.2656,30.72,31.78,9.06,0,111.7,12.94,31.58,117.5
"2016-07-10 01:08:00",1795745,4.534,153.9,3.845,0.323,27.3,112.2633,30.71,31.77,9.14,0,111.7,12.94,31.57,115.9
"2016-07-10 01:08:30",1795746,4.642,156.7,6.025,0.312,27.42,112.2596,30.71,31.77,9.14,0,111.7,12.94,31.56,118.7
"2016-07-10 01:09:00",1795747,3.89,146.9,5.777,0.18,27.27,112.2577,30.7,31.76,9.12,0,111.7,12.95,31.56,108.9
"2016-07-10 01:09:30",1795748,3.54,146.7,9.01,0.294,27.35,112.2551,30.69,31.75,9.14,0,111.7,12.95,31.55,108.7
"2016-07-10 01:10:00",1795749,3.685,143.9,2.2,0.127,27.15,112.2554,30.69,31.74,9.15,0,111.7,12.95,31.55,105.9
"2016-07-10 01:10:30",1795750,3.807,147.4,4.128,0.131,27.21,112.2588,30.7,31.75,9.17,0,111.7,12.95,31.56,109.4
"2016-07-10 01:11:00",1795751,3.546,139.7,3.443,0.258,27.28,112.2598,30.71,31.74,9.18,0,111.7,12.95,31.56,101.7
"2016-07-10 01:11:30",1795752,3.209,140.4,3.604,0.154,27.14,112.2609,30.71,31.75,9.2,0,111.7,12.95,31.57,102.4
"2016-07-10 01:12:00",1795753,3.686,148.6,5.365,0.222,27.22,112.2613,30.71,31.74,9.22,0,111.7,12.95,31.57,110.6
"2016-07-10 01:12:30",1795754,3.901,154.1,2.299,0.22,27.32,112.2622,30.71,31.76,9.17,0,111.6,12.95,31.57,116.1
"2016-07-10 01:13:00",1795755,3.587,153.9,3.465,0.21,27.33,112.2641,30.72,31.74,9.09,0,111.6,12.95,31.58,115.9
"2016-07-10 01:13:30",1795756,3.695,155.8,1.507,0.109,27.64,112.2638,30.72,31.76,9.07,0,111.7,12.95,31.58,117.8
"2016-07-10 01:14:00",1795757,3.693,152,2.676,0.12,27.58,112.2622,30.71,31.75,9.09,0,111.7,12.95,31.57,114.0
"2016-07-10 01:14:30",1795758,3.63,147.3,1.749,0.134,27.61,112.2654,30.72,31.75,9.19,0,111.6,12.95,31.58,109.3
"2016-07-10 01:15:00",1795759,3.518,143.9,1.205,0.119,27.83,112.2652,30.72,31.75,9.27,0,111.6,12.95,31.58,105.9
"2016-07-10 01:15:30",1795760,3.703,146.2,2.004,0.116,27.79,112.2637,30.72,31.75,9.12,0,111.7,12.95,31.58,108.2
"2016-07-10 01:16:00",1795761,3.954,150.4,4.163,0.322,27.85,112.2617,30.71,31.74,9.03,0,111.6,12.95,31.57,112.4
"2016-07-10 01:16:30",1795762,4.027,139.5,6.084,0.329,27.93,112.2643,30.72,31.73,9.04,0,111.6,12.95,31.58,101.5
"2016-07-10 01:17:00",1795763,3.589,138.7,2.141,0.183,27.87,112.2642,30.72,31.73,9.08,0,111.6,12.95,31.58,100.7
"2016-07-10 01:17:30",1795764,4.025,145.7,3.715,0.113,27.9,112.25,30.68,31.71,9.1,0,111.6,12.95,31.54,107.7
"2016-07-10 01:18:00",1795765,3.671,143.4,3.852,0.158,28,112.2391,30.65,31.7,9.11,0,111.6,12.94,31.51,105.4
"2016-07-10 01:18:30",1795766,3.64,142.6,1.329,0.112,28.04,112.2341,30.64,31.68,9.12,0,111.6,12.94,31.50,104.6
"2016-07-10 01:19:00",1795767,3.739,141.3,1.479,0.186,27.93,112.2335,30.64,31.67,9.19,0,111.6,12.94,31.50,103.3
"2016-07-10 01:19:30",1795768,3.671,134.3,1.949,0.139,27.8,112.2246,30.62,31.67,9.34,0,111.6,12.94,31.47,96.3
"2016-07-10 01:20:00",1795769,3.518,131.3,1.546,0.157,27.89,112.2098,30.58,31.64,9.55,0,111.6,12.94,31.44,93.3
"2016-07-10 01:20:30",1795770,4.039,132.3,1.712,0.146,27.86,112.2029,30.56,31.62,9.62,0,111.6,12.94,31.42,94.3
"2016-07-10 01:21:00",1795771,4.41,133.6,1.496,0.11,27.86,112.2024,30.56,31.61,9.5,0,111.6,12.94,31.42,95.6
"2016-07-10 01:21:30",1795772,4.316,136.3,1.553,0.161,27.8,112.1841,30.51,31.59,9.42,0,111.6,12.94,31.37,98.3
"2016-07-10 01:22:00",1795773,4.64,134.9,1.749,0.102,27.94,112.1755,30.49,31.58,9.45,0,111.6,12.94,31.35,96.9
"2016-07-10 01:22:30",1795774,4.701,139.6,1.141,0.24,27.98,112.1628,30.46,31.53,9.43,0,111.6,12.94,31.31,101.6
"2016-07-10 01:23:00",1795775,5.007,140.2,1.791,0.126,27.94,112.1454,30.41,31.53,9.36,0,111.6,12.95,31.27,102.2
"2016-07-10 01:23:30",1795776,5.274,140.5,2.613,0.351,28.01,112.1353,30.39,31.49,9.4,0,111.6,12.95,31.24,102.5
"2016-07-10 01:24:00",1795777,5.095,138.5,1.96,0.213,27.96,112.1171,30.34,31.45,9.26,0,111.6,12.95,31.20,100.5
"2016-07-10 01:24:30",1795778,5.154,141.1,1.588,0.129,28.02,112.109,30.32,31.45,9.28,0,111.6,12.95,31.18,103.1
"2016-07-10 01:25:00",1795779,5.007,138.4,1.855,0.18,27.97,112.0969,30.29,31.41,9.19,0,111.6,12.95,31.14,100.4
"2016-07-10 01:25:30",1795780,4.713,140.4,1.404,0.134,27.84,112.0798,30.24,31.38,9.22,0,111.6,12.95,31.10,102.4
"2016-07-10 01:26:00",1795781,4.673,138.5,2.393,0.143,27.88,112.0753,30.23,31.37,9.29,0,111.6,12.95,31.09,100.5
"2016-07-10 01:26:30",1795782,4.902,138.8,2.094,0.216,27.88,112.0664,30.21,31.32,9.28,0,111.6,12.95,31.07,100.8
"2016-07-10 01:27:00",1795783,4.9,143.8,5.144,0.374,27.9,112.0494,30.16,31.32,9.38,0,111.6,12.95,31.02,105.8
"2016-07-10 01:27:30",1795784,5.546,151.1,3.559,0.281,27.94,112.0442,30.15,31.27,9.44,0,111.6,12.95,31.01,113.1
"2016-07-10 01:28:00",1795785,5.406,153.9,2.38,0.133,28.01,112.0407,30.14,31.25,9.36,0,111.6,12.95,31.00,115.9
"2016-07-10 01:28:30",1795786,5.497,154.4,1.163,0.107,27.9,112.025,30.1,31.23,9.35,0,111.6,12.95,30.96,116.4
"2016-07-10 01:29:00",1795787,5.09,153,1.016,0.144,28.09,112.0247,30.1,31.21,9.3,0,111.6,12.95,30.96,115.0
"2016-07-10 01:29:30",1795788,5.063,149.5,1.33,0.137,28,112.0291,30.11,31.19,9.26,0,111.6,12.96,30.97,111.5
"2016-07-10 01:30:00",1795789,4.899,151.5,1.897,0.229,28.01,112.0237,30.1,31.17,9.28,0,111.6,12.96,30.96,113.5
"2016-07-10 01:30:30",1795790,4.737,152,1.565,0.122,28,112.0144,30.07,31.14,9.29,0,111.6,12.96,30.93,114.0
"2016-07-10 01:31:00",1795791,4.818,149.4,1.13,0.141,27.94,112.0035,30.05,31.13,9.31,0,111.6,12.96,30.90,111.4
"2016-07-10 01:31:30",1795792,4.833,150.1,0.755,0.114,27.87,112.0027,30.04,31.11,9.33,0,111.6,12.96,30.90,112.1
"2016-07-10 01:32:00",1795793,4.647,151.1,1.308,0.138,28.05,112.0024,30.04,31.09,9.33,0,111.6,12.96,30.90,113.1
"2016-07-10 01:32:30",1795794,4.336,149.7,0.701,0.189,27.92,111.9934,30.02,31.07,9.34,0,111.6,12.96,30.88,111.7
"2016-07-10 01:33:00",1795795,4.174,149.5,1.101,0.102,27.85,111.9815,29.99,31.05,9.45,0,111.6,12.96,30.85,111.5
"2016-07-10 01:33:30",1795796,4.36,146.3,1.94,0.09,27.84,111.9761,29.98,31.05,9.5,0,111.6,12.96,30.83,108.3
"2016-07-10 01:34:00",1795797,4.426,144.1,1.357,0.131,27.82,111.975,29.97,31.03,9.61,0,111.6,12.96,30.83,106.1
"2016-07-10 01:34:30",1795798,4.272,147.4,2.579,0.127,27.91,111.9772,29.98,31.02,9.66,0,111.6,12.96,30.84,109.4
"2016-07-10 01:35:00",1795799,4.393,149.6,1.965,0.127,27.92,111.9773,29.98,31.02,9.65,0,111.6,12.96,30.84,111.6
"2016-07-10 01:35:30",1795800,4.42,150.1,1.425,0.087,27.92,111.9672,29.95,30.98,9.51,0,111.6,12.95,30.81,112.1
"2016-07-10 01:36:00",1795801,4.531,152.3,1.577,0.104,28,111.956,29.92,30.97,9.46,0,111.6,12.95,30.78,114.3
"2016-07-10 01:36:30",1795802,4.568,152.2,1.889,0.109,28.05,111.9482,29.9,30.96,9.45,0,111.6,12.95,30.76,114.2
"2016-07-10 01:37:00",1795803,4.91,150,0.629,0.079,27.86,111.9448,29.9,30.96,9.28,0,111.6,12.95,30.75,112.0
"2016-07-10 01:37:30",1795804,4.943,149.9,0.585,0.075,27.79,111.9448,29.9,30.93,9.17,0,111.6,12.95,30.75,111.9
"2016-07-10 01:38:00",1795805,4.789,150.5,0.98,0.082,27.99,111.9437,29.89,30.94,9.15,0,111.6,12.95,30.75,112.5
"2016-07-10 01:38:30",1795806,4.758,149.2,0.656,0.097,28.14,111.9314,29.86,30.91,9.14,0,111.6,12.95,30.72,111.2
"2016-07-10 01:39:00",1795807,4.62,149.9,0.955,0.039,28.23,111.9216,29.84,30.89,9.16,0,111.6,12.95,30.69,111.9
"2016-07-10 01:39:30",1795808,4.772,149.8,0.994,0.289,27.96,111.9161,29.82,30.87,9.22,0,111.5,12.95,30.68,111.8
"2016-07-10 01:40:00",1795809,5.16,149.9,1.837,0.267,27.96,111.9143,29.82,30.87,9.41,0,111.5,12.95,30.67,111.9
"2016-07-10 01:40:30",1795810,5.11,151.8,2.49,0.375,28.06,111.9178,29.83,30.85,9.42,0,111.5,12.96,30.68,113.8
"2016-07-10 01:41:00",1795811,4.864,146.3,1.119,0.175,27.9,111.914,29.82,30.85,9.52,0,111.5,12.96,30.67,108.3
"2016-07-10 01:41:30",1795812,4.997,148,1.899,0.079,27.83,111.9136,29.82,30.86,9.46,0,111.5,12.96,30.67,110.0
"2016-07-10 01:42:00",1795813,5.044,147.5,1.256,0.141,27.99,111.908,29.8,30.84,9.32,0,111.5,12.96,30.66,109.5
"2016-07-10 01:42:30",1795814,4.523,152.2,3.846,0.142,28.08,111.9035,29.79,30.84,9.33,0,111.5,12.96,30.64,114.2
"2016-07-10 01:43:00",1795815,4.379,159.9,3.101,0.2,28.02,111.9056,29.79,30.81,9.38,0,111.5,12.96,30.65,121.9
"2016-07-10 01:43:30",1795816,4.636,149.1,3.863,0.373,27.93,111.9078,29.8,30.82,9.43,0,111.5,12.96,30.66,111.1
"2016-07-10 01:44:00",1795817,4.25,148.8,3.328,0.304,27.9,111.9062,29.8,30.81,9.55,0,111.5,12.96,30.65,110.8
"2016-07-10 01:44:30",1795818,4.986,145.4,3.966,0.261,27.94,111.9058,29.79,30.81,9.58,0,111.5,12.96,30.65,107.4
"2016-07-10 01:45:00",1795819,4.651,141.8,3.224,0.387,27.96,111.9058,29.79,30.8,9.51,0,111.5,12.96,30.65,103.8
"2016-07-10 01:45:30",1795820,4.914,147.9,2.623,0.442,27.92,111.9058,29.79,30.79,9.71,0,111.5,12.96,30.65,109.9
"2016-07-10 01:46:00",1795821,5.255,147.4,1.708,0.102,28.09,111.9067,29.8,30.79,9.46,0,111.5,12.96,30.65,109.4
"2016-07-10 01:46:30",1795822,5.134,145.4,2.401,0.162,28.05,111.908,29.8,30.8,9.4,0,111.5,12.96,30.66,107.4
"2016-07-10 01:47:00",1795823,5.457,150.2,0.912,0.168,27.98,111.9047,29.79,30.78,9.42,0,111.5,12.97,30.65,112.2
"2016-07-10 01:47:30",1795824,5.655,149.9,0.55,0.074,27.84,111.9004,29.78,30.76,9.37,0,111.5,12.96,30.64,111.9